Location: Crescent
(42.8242°N, 73.7329°W)
Time: 21:01:33
(UTC+00:00)

SR - Pass Details

Date: 21 February 2026
Orbit: 573 x 848 km, 66.7° (Epoch: 6 March)

Event Time Altitude Azimuth Distance (km) Brightness Sun altitude
Rises 15:19:30 0° 342° (NNW) 3,046 ? 31.2°
Reaches altitude 10° 15:23:08 10° 10° (N) 2,195 ? 31.6°
Maximum altitude 15:25:26 13° 38° (NE) 2,033 ? 31.8°
Drops below altitude 10° 15:27:48 10° 65° (ENE) 2,276 ? 32.0°
Sets 15:31:42 0° 93° (E) 3,265 ? 32.4°
